Wind_Speed
17 19 20 22 25 24 23 23 22 20 21 21 22 21 17 15 15 17 20 19 18 11 8 17 19 14 15 17 16 20 2 9 9 7 3 4 3 5 3 12 4 4 3 5 25
17 19 24 26 25 21 19 16 16 16 16 16 16 17 14 14 13 20 21 21 17 20 7 16 22 18 12 12 11 8 11 8 4 3 5 5 6 8 8 13 11 21 4 18 24
16 20 25 22 20 15 14 13 13 12 14 6 11 13 9 9 8 9 15 19 20 19 11 14 21 18 13 10 10 6 18 4 1 10 7 4 4 6 8 4 10 23 12 10 22
13 20 24 20 15 12 12 13 12 11 10 7 5 2 5 5 4 3 6 17 21 19 17 12 17 13 11 6 11 5 14 15 1 6 3 1 1 6 6 3 17 21 12 12 19
13 19 20 15 13 10 10 11 11 9 7 6 2 3 3 3 9 3 2 7 19 17 23 13 17 11 6 7 9 3 8 19 12 7 7 4 6 3 21 20 16 19 7 15 16
14 15 18 14 11 10 9 10 11 10 8 4 2 3 3 2 5 7 6 9 10 11 17 26 10 15 11 8 8 9 7 18 15 16 9 3 5 6 24 19 15 19 16 11 17
19 13 14 11 11 9 9 10 11 8 5 4 3 2 4 7 3 3 8 13 4 12 23 28 6 16 7 3 10 3 7 6 11 9 4 8 6 7 22 22 26 22 18 9 9
18 16 13 14 10 8 8 9 10 8 5 5 2 3 3 3 4 4 6 14 5 17 17 25 15 21 3 5 12 5 6 5 5 13 5 10 7 10 18 20 21 21 21 13 11
20 17 12 12 9 9 8 7 6 6 4 3 4 4 2 3 1 1 7 9 8 13 15 20 10 8 4 7 4 5 6 6 5 20 10 10 3 14 8 17 18 25 25 20 12
20 17 14 11 7 7 7 6 5 5 4 3 5 4 2 4 2 4 4 7 2 16 14 15 5 4 2 7 18 10 6 3 6 14 9 13 6 9 15 11 20 27 28 26 23
20 19 12 9 5 6 3 0 2 3 4 4 6 4 7 8 8 3 4 3 4 15 6 10 6 14 7 4 1 8 6 6 2 6 5 11 3 6 14 9 21 31 30 27 28
21 19 10 6 5 3 1 1 4 1 2 5 4 3 4 2 5 4 7 3 4 11 13 3 9 6 6 5 6 8 7 5 2 4 9 6 9 9 15 19 27 29 31 32 34
22 16 8 5 5 2 1 3 3 2 1 4 3 3 2 2 3 5 5 6 7 7 6 5 9 8 6 5 6 3 8 6 6 5 2 6 5 7 9 18 26 34 42 39 25
22 15 7 3 2 4 3 3 2 4 3 4 2 2 4 1 3 5 4 4 4 6 7 3 11 8 6 5 5 3 5 6 8 5 4 3 4 9 10 12 10 28 36 38 24
20 12 5 1 1 2 2 3 2 2 5 5 3 3 2 1 7 4 4 7 6 6 3 4 10 8 5 6 3 2 5 6 3 4 3 1 1 5 5 16 24 29 29 37 31
16 7 4 3 0 1 1 3 1 4 1 2 1 2 2 1 2 3 4 5 5 5 4 4 3 4 2 3 3 6 6 7 5 3 2 6 5 5 6 12 3 14 32 42 37
11 2 4 3 1 3 1 3 4 5 2 3 2 2 1 4 4 2 1 5 2 5 3 6 3 2 3 7 4 4 5 3 2 2 4 1 6 11 5 6 6 9 14 20 30
6 2 3 3 2 3 1 4 6 2 2 1 1 2 4 3 5 2 5 3 4 3 5 3 5 2 5 3 5 2 4 5 5 3 3 0 6 5 5 9 14 18 18 15 20
3 4 1 3 2 1 1 4 5 5 4 2 2 3 2 1 2 2 3 2 3 0 5 5 2 1 3 2 2 4 2 3 6 2 3 4 6 8 10 8 8 11 11 13 21
3 4 2 4 2 1 3 2 1 3 2 0 2 4 3 2 2 2 2 3 3 3 2 4 6 1 1 1 5 4 4 3 3 1 3 4 5 6 6 7 7 5 10 15 23
3 2 3 3 2 2 3 5 3 4 4 3 1 2 4 4 2 2 4 3 3 3 4 4 4 2 3 3 5 2 2 2 2 4 4 2 5 6 5 7 8 9 12 19 25
2 1 1 2 1 1 1 4 3 3 3 1 2 2 3 5 2 2 4 1 6 8 4 2 5 4 2 1 1 2 4 5 3 4 1 2 7 2 6 8 8 8 10 21 24
1 1 2 2 1 2 4 2 1 2 2 2 1 2 1 2 3 1 1 4 6 5 7 6 1 4 1 2 1 4 6 4 4 3 6 4 6 1 4 5 3 4 10 20 22
1 2 1 2 3 1 3 3 2 1 2 2 1 1 2 3 4 3 2 3 2 2 3 5 3 5 6 4 4 5 14 11 10 8 7 12 7 7 6 4 5 7 13 20 21
4 2 1 3 4 3 2 4 3 2 2 4 3 4 1 2 1 2 2 1 4 5 4 2 3 2 3 2 4 3 5 17 16 15 12 6 18 15 13 8 11 17 17 21 21
2 3 2 2 3 3 6 4 6 6 4 3 3 3 1 2 2 4 4 3 4 1 2 2 3 3 1 1 2 3 7 10 17 20 16 20 21 12 9 11 13 15 21 24 23
5 4 2 3 2 1 2 3 4 6 5 8 3 1 2 2 3 4 6 2 2 7 3 3 5 3 3 2 3 5 12 12 5 6 15 15 23 3 6 9 17 19 21 26 24
Wind_Direction
347 344 333 327 326 327 320 312 302 303 293 273 256 242 247 244 244 247 244 233 223 189 197 201 201 195 196 198 192 196 242 210 182 164 164 73 66 14 9 350 28 320 234 196 161
348 340 327 329 337 335 333 335 330 319 308 285 261 224 232 240 254 251 247 241 228 221 233 197 203 194 200 192 194 179 201 225 184 74 115 92 81 351 6 354 43 18 22 158 167
345 334 329 343 349 349 360 1 0 358 4 289 270 239 205 241 270 282 257 241 221 220 210 205 201 191 198 193 189 198 206 187 115 156 107 92 75 5 0 29 23 338 330 176 174
340 335 332 351 349 3 11 13 15 8 12 35 48 81 245 222 206 47 12 219 207 210 202 200 184 182 185 183 190 187 214 200 91 117 160 125 101 349 303 241 339 344 324 202 194
333 337 333 351 349 357 7 8 3 357 353 346 311 251 227 203 244 180 62 165 208 198 209 198 179 175 165 178 160 233 175 204 202 191 112 139 22 314 276 285 316 341 321 205 205
339 330 332 339 342 345 351 349 349 347 348 358 348 261 228 228 308 253 200 175 197 195 221 209 200 172 191 179 180 198 199 181 166 171 157 118 24 349 269 281 293 330 336 231 221
337 324 328 322 325 336 335 342 342 334 321 347 326 273 254 267 327 273 219 208 237 209 204 214 193 170 187 138 192 95 115 128 162 147 121 111 278 246 266 284 290 304 325 258 228
340 334 326 326 314 317 324 332 341 357 329 316 322 286 264 316 260 250 275 207 230 210 209 210 189 198 223 168 157 160 117 151 183 163 115 137 234 238 252 279 280 288 303 296 234
336 331 323 320 313 303 299 309 327 1 23 26 360 312 314 74 93 315 156 215 204 178 180 196 177 183 167 120 117 192 163 149 151 182 150 180 214 236 221 241 267 279 291 286 261
333 333 322 318 317 311 298 291 274 346 335 318 320 318 27 349 130 142 193 155 145 156 134 172 278 154 152 161 186 168 133 147 154 193 173 184 205 149 177 234 266 276 281 278 270
331 330 319 309 308 309 315 330 277 284 354 324 301 281 323 352 148 127 136 164 198 141 142 158 217 193 183 170 104 115 112 145 97 180 145 199 218 152 186 192 275 271 265 266 264
334 331 323 300 279 319 14 115 84 359 330 20 12 321 297 178 149 150 162 156 241 117 110 157 199 192 133 126 111 121 127 156 97 171 188 161 209 238 174 185 224 255 267 270 271
339 332 330 301 259 263 179 141 52 19 77 317 355 336 343 29 70 125 145 122 84 97 117 150 162 153 133 126 108 60 152 167 152 112 50 141 243 212 233 200 209 225 237 256 266
341 329 345 327 244 224 245 224 352 351 49 16 304 29 5 48 60 88 120 145 86 110 113 270 145 140 149 100 115 99 161 129 136 124 183 193 254 235 224 226 220 235 236 243 244
342 330 2 310 291 180 203 230 269 324 56 8 338 337 12 43 141 38 59 55 98 138 144 198 152 133 144 140 109 152 141 118 88 91 116 168 236 234 169 229 227 226 236 242 239
342 337 18 12 98 206 258 255 231 53 322 25 275 207 202 89 74 109 54 95 138 108 71 80 48 63 100 80 70 154 81 55 57 80 341 201 186 233 200 223 229 229 240 243 238
341 348 16 28 70 162 224 138 35 78 305 352 6 318 84 48 99 55 1 100 156 128 145 80 35 29 40 91 42 73 78 46 21 358 219 276 203 255 258 229 220 238 251 248 236
331 214 12 33 62 115 113 53 68 277 223 273 218 45 57 356 49 131 121 160 193 117 84 123 144 19 357 98 156 178 140 146 178 201 247 143 234 255 257 279 255 255 257 258 224
285 205 315 12 119 348 181 52 191 209 186 198 114 95 37 161 122 138 149 171 138 86 123 126 70 61 51 56 76 183 143 152 109 38 46 240 289 286 269 279 287 270 247 230 203
229 207 300 7 106 342 84 162 176 199 186 52 249 156 122 151 99 74 122 183 117 21 75 156 122 320 3 141 39 90 160 63 5 136 268 285 278 239 300 306 299 251 231 202 190
193 229 294 13 34 325 136 204 218 210 182 176 313 344 127 180 174 207 177 139 143 133 99 123 89 106 122 192 163 97 123 86 133 145 188 279 261 207 239 284 288 270 220 197 184
217 31 295 345 64 23 166 195 166 151 163 286 126 298 157 159 137 282 197 241 158 148 101 136 121 146 149 289 212 192 196 157 149 223 153 144 269 235 260 276 282 278 218 192 190
301 302 291 6 101 324 297 292 251 117 144 125 45 62 16 109 106 55 355 350 162 151 161 171 156 118 75 337 340 196 198 202 96 61 194 187 257 202 298 347 337 237 207 197 195
38 21 27 80 59 46 350 3 329 330 80 88 111 45 50 60 23 139 101 347 130 187 151 110 124 147 183 190 144 199 213 199 200 232 228 232 277 282 292 316 306 246 217 203 203
48 69 44 320 15 358 21 349 311 23 8 36 73 78 122 120 75 117 131 106 37 129 50 84 167 104 266 232 148 214 212 216 221 227 233 262 243 257 256 265 253 263 221 212 207
81 81 45 19 344 346 12 11 12 329 353 11 74 342 358 135 168 199 143 182 183 126 118 15 151 133 157 7 204 271 228 217 230 237 249 254 278 248 265 282 276 256 218 216 214
65 76 92 4 351 70 34 350 16 351 50 56 337 41 54 62 5 337 203 245 208 155 137 119 130 84 273 356 297 276 228 207 189 220 223 238 245 211 258 243 249 249 227 225 221
Height
1504 1501 1497 1493 1488 1484 1480 1476 1474 1470 1469 1468 1469 1471 1473 1475 1475 1477 1476 1480 1483 1486 1489 1493 1497 1499 1501 1505 1508 1513 1519 1517 1517 1517 1518 1520 1521 1521 1521 1520 1518 1520 1520 1520 1522
1502 1500 1495 1490 1486 1482 1477 1474 1471 1468 1466 1465 1465 1466 1470 1471 1473 1472 1475 1477 1482 1484 1487 1489 1493 1497 1500 1502 1505 1506 1514 1513 1508 1512 1516 1520 1521 1523 1521 1520 1520 1520 1521 1522 1523
1501 1497 1493 1489 1485 1481 1477 1473 1470 1468 1464 1462 1463 1465 1467 1470 1472 1470 1471 1473 1479 1482 1484 1487 1492 1496 1498 1500 1503 1505 1503 1507 1509 1512 1516 1520 1522 1524 1524 1524 1524 1527 1526 1526 1526
1499 1496 1492 1488 1484 1481 1478 1475 1471 1468 1467 1465 1464 1464 1466 1469 1473 1468 1467 1469 1474 1479 1482 1486 1490 1495 1496 1498 1500 1505 1504 1508 1511 1512 1517 1520 1521 1522 1524 1525 1526 1525 1524 1526 1529
1498 1495 1491 1487 1484 1481 1478 1476 1473 1470 1467 1467 1467 1467 1467 1469 1468 1467 1467 1468 1473 1477 1480 1484 1488 1493 1494 1496 1498 1500 1502 1508 1511 1514 1516 1518 1520 1524 1520 1523 1526 1524 1522 1525 1529
1497 1494 1490 1487 1483 1481 1479 1476 1473 1471 1469 1467 1467 1467 1467 1469 1467 1467 1468 1470 1471 1473 1478 1484 1486 1491 1495 1495 1497 1497 1500 1502 1510 1512 1516 1518 1521 1524 1518 1521 1524 1525 1523 1525 1527
1493 1491 1489 1485 1482 1480 1478 1476 1473 1471 1470 1468 1466 1466 1468 1468 1467 1467 1467 1470 1472 1473 1477 1480 1485 1489 1492 1494 1496 1497 1502 1509 1511 1513 1516 1520 1526 1523 1520 1521 1524 1525 1525 1526 1527
1492 1489 1486 1483 1481 1479 1477 1475 1473 1470 1469 1469 1468 1467 1465 1466 1465 1466 1467 1469 1470 1472 1477 1480 1485 1489 1492 1492 1495 1499 1503 1509 1510 1515 1518 1525 1524 1521 1521 1524 1523 1524 1525 1526 1527
1488 1486 1482 1481 1479 1478 1476 1474 1473 1472 1470 1470 1470 1469 1466 1466 1465 1465 1465 1468 1468 1471 1475 1480 1484 1488 1491 1493 1500 1499 1507 1508 1511 1510 1513 1522 1521 1514 1518 1524 1522 1523 1525 1526 1527
1487 1483 1479 1479 1476 1475 1473 1472 1472 1472 1471 1470 1470 1472 1467 1467 1465 1466 1466 1467 1468 1471 1476 1481 1485 1487 1491 1490 1491 1496 1506 1505 1508 1507 1510 1513 1514 1510 1517 1521 1520 1522 1522 1523 1525
1484 1479 1477 1476 1475 1474 1473 1472 1475 1475 1472 1472 1472 1470 1468 1467 1466 1467 1467 1469 1469 1470 1476 1485 1486 1480 1484 1486 1486 1495 1502 1505 1503 1503 1509 1512 1516 1512 1516 1518 1519 1519 1519 1519 1520
1481 1477 1476 1475 1474 1473 1473 1473 1474 1475 1473 1471 1469 1468 1467 1466 1466 1467 1468 1470 1467 1468 1477 1490 1484 1485 1485 1487 1490 1493 1503 1507 1504 1504 1509 1513 1515 1512 1514 1513 1520 1515 1512 1511 1516
1478 1475 1473 1473 1473 1474 1472 1472 1472 1472 1474 1472 1470 1468 1467 1467 1466 1468 1469 1470 1469 1474 1481 1483 1479 1483 1485 1490 1493 1497 1502 1507 1508 1508 1511 1512 1515 1511 1508 1509 1513 1514 1514 1512 1511
1477 1473 1473 1471 1473 1473 1473 1473 1472 1472 1476 1472 1470 1468 1468 1466 1468 1467 1469 1471 1474 1475 1481 1483 1479 1483 1486 1490 1492 1499 1497 1499 1506 1511 1521 1509 1522 1509 1504 1503 1506 1504 1506 1506 1508
1475 1473 1472 1469 1471 1472 1472 1471 1472 1474 1489 1471 1469 1469 1466 1467 1468 1468 1466 1466 1472 1476 1484 1481 1480 1485 1489 1490 1490 1498 1497 1500 1505 1513 1512 1514 1520 1502 1501 1498 1488 1488 1495 1498 1501
1473 1471 1470 1470 1472 1472 1472 1471 1473 1484 1486 1474 1468 1467 1466 1465 1467 1467 1468 1472 1474 1476 1481 1483 1484 1487 1490 1491 1492 1497 1500 1507 1514 1518 1536 1515 1517 1500 1499 1486 1486 1487 1488 1489 1493
1471 1470 1469 1469 1472 1470 1470 1471 1479 1481 1474 1472 1466 1464 1464 1464 1465 1468 1468 1471 1477 1478 1480 1484 1489 1492 1491 1493 1495 1498 1505 1532 1533 1536 1534 1515 1517 1490 1486 1485 1481 1481 1481 1482 1485
1470 1468 1467 1468 1468 1469 1469 1473 1481 1471 1471 1466 1466 1464 1467 1467 1468 1471 1470 1474 1475 1472 1481 1490 1494 1494 1494 1495 1496 1500 1503 1523 1522 1528 1523 1519 1512 1489 1477 1476 1476 1476 1477 1477 1480
1468 1467 1467 1467 1468 1469 1472 1487 1477 1478 1471 1469 1464 1466 1467 1467 1469 1470 1472 1471 1470 1471 1478 1495 1496 1496 1496 1496 1498 1503 1508 1509 1527 1534 1542 1514 1501 1487 1476 1476 1476 1476 1474 1473 1476
1468 1467 1467 1466 1468 1469 1471 1474 1470 1468 1467 1467 1467 1463 1467 1468 1470 1470 1471 1471 1473 1471 1473 1486 1495 1496 1498 1497 1501 1499 1505 1511 1530 1531 1524 1515 1510 1495 1480 1476 1474 1474 1474 1475 1479
1468 1467 1467 1467 1467 1467 1474 1475 1466 1464 1464 1465 1465 1463 1467 1472 1473 1471 1471 1471 1471 1475 1474 1480 1487 1500 1498 1500 1502 1504 1507 1508 1514 1523 1522 1521 1501 1484 1479 1475 1472 1469 1470 1473 1476
1468 1469 1468 1468 1470 1470 1472 1465 1461 1461 1463 1465 1466 1465 1465 1468 1469 1471 1470 1469 1468 1469 1476 1480 1492 1497 1496 1498 1498 1497 1501 1507 1518 1522 1533 1535 1507 1476 1477 1474 1470 1467 1468 1472 1478
1467 1468 1468 1467 1474 1475 1464 1460 1461 1462 1461 1461 1462 1463 1464 1465 1467 1469 1470 1468 1468 1470 1474 1478 1496 1496 1501 1503 1499 1497 1497 1498 1508 1516 1527 1517 1495 1474 1473 1470 1468 1469 1471 1475 1477
1467 1471 1469 1468 1469 1468 1467 1466 1461 1461 1462 1463 1464 1464 1464 1466 1469 1470 1471 1471 1470 1471 1471 1473 1486 1490 1498 1488 1491 1493 1491 1494 1498 1497 1494 1495 1488 1476 1471 1471 1469 1471 1473 1475 1477
1468 1473 1474 1475 1471 1470 1471 1469 1464 1463 1462 1461 1464 1465 1466 1467 1469 1472 1472 1473 1474 1473 1474 1475 1489 1498 1488 1485 1490 1491 1488 1489 1493 1490 1488 1479 1477 1472 1470 1469 1468 1469 1470 1472 1474
1469 1471 1474 1474 1472 1472 1473 1473 1472 1469 1466 1466 1466 1468 1467 1467 1467 1471 1471 1473 1472 1476 1478 1481 1496 1497 1485 1486 1486 1492 1488 1489 1485 1484 1486 1480 1478 1468 1466 1466 1466 1463 1465 1467 1468
1469 1471 1472 1475 1473 1474 1478 1477 1475 1473 1471 1469 1469 1467 1467 1469 1468 1467 1468 1468 1470 1473 1478 1481 1491 1499 1501 1494 1491 1492 1476 1477 1479 1476 1476 1480 1460 1463 1462 1461 1460 1459 1460 1462 1464